Regional Weather Roundup
Issued by NWS Charleston, SC

Current Version | Previous Version | Text Only | Print | Product List | Glossary Off
Versions: 1 2 3 4 5 6 7 8 9 10 11 12 13 14 15 16 17 18 19 20 21 22 23 24 25 26 27 28 29 30 31 32 33 34 35 36 37 38 39 40 41 42 43 44 45 46 47 48 49 50
000 ASUS42 KCHS 290026 RWRCHS REGIONAL WEATHER ROUNDUP NATIONAL WEATHER SERVICE CHARLESTON SC 800 PM EDT TUE JUL 28 2015 NOTE: "FAIR" INDICATES FEW OR NO CLOUDS BELOW 12,000 FEET WITH NO SIGNIFICANT WEATHER AND/OR OBSTRUCTIONS TO VISIBILITY. NOT ALL STATIONS ARE QUALITY CONTROLLED BY THE NATIONAL WEATHER SERVICE. USE DATA WITH CAUTION...ESPECIALLY DEWPOINT OBSERVATIONS. SCZ027-030-031-034>040-042>050-290100- ...SOUTHEAST SOUTH CAROLINA... CITY SKY/WX TMP DP RH WIND PRES REMARKS N CHARLESTON PTCLDY 83 71 67 SE9 29.95R 6HR MIN TEMP: 83; 6HR MAX TEMP: 90; WATERFRONT PRK N/A 84 75 74 E10 29.93R HX 92 MOUNT PLEASANT FAIR 81 73 78 CALM 29.96R JOHNS ISLAND FAIR 81 75 83 CALM 29.96R PINOPOLIS NOT AVBL MONCKS CORNER FAIR 82 72 69 CALM 29.95S SUMMERVILLE FAIR 82 73 74 CALM 29.96S BEAUFORT MCAS PTCLDY 84 75 74 SE7 29.95R HX 92 6HR MIN TEMP: 84; 6HR MAX TEMP: 92; BEAUFORT ARPT FAIR 81 77 89 E8 29.95S HILTON HEAD IS CLOUDY 82 79 89 NE6 29.97R HX 93 WALTERBORO MOCLDY 86 72 62 SE8 29.96R HX 92 ALLENDALE FAIR 86 77 74 CALM 29.93R HX 97 ...SOUTHERN MIDLANDS AND PEE DEE... CITY SKY/WX TMP DP RH WIND PRES REMARKS GEORGETOWN NOT AVBL KINGSTREE NOT AVBL ORANGEBURG CLOUDY 87 72 60 CALM 29.95R HX 93 6HR MIN TEMP: 87; 6HR MAX TEMP: 96; BARNWELL FAIR 84 79 84 CALM 29.95S HX 96 AIKEN FAIR 84 68 58 CALM 30.00R MANNING FAIR 81 68 65 CALM 29.95R COLUMBIA CLOUDY 86 71 60 N8 29.94S HX 91 6HR MIN TEMP: 86; 6HR MAX TEMP: 97; SUMTER MOCLDY 85 72 65 CALM 29.93R HX 90 6HR MIN TEMP: 85; 6HR MAX TEMP: 97; FLORENCE MOCLDY 89 68 49 SE7 29.95R HX 93 6HR MIN TEMP: 89; 6HR MAX TEMP: 95; MYRTLE BEACH CLEAR 82 70 65 E12 29.97F N MYRTLE BEACH CLEAR 83 72 69 E12 29.95S 6HR MIN TEMP: 83; 6HR MAX TEMP: 87; $$ GAZ063-065-086>088-099>101-113>116-118-119-134>141-150-290100- ...SOUTHEAST GEORGIA... CITY SKY/WX TMP DP RH WIND PRES REMARKS SAVANNAH ARPT MOCLDY 84 73 69 SE10 29.95R HX 90 6HR MIN TEMP: 84; 6HR MAX TEMP: 92; HUNTER AAF PTCLDY 83 77 80 E7 29.93R HX 92 6HR MIN TEMP: 83; 6HR MAX TEMP: 91; FORT STEWART PTCLDY 85 74 69 E7 29.93R HX 91 6HR MIN TEMP: 85; 6HR MAX TEMP: 94; STATESBORO MOCLDY 87 78 75 SE5 29.94R HX 99 SYLVANIA MOCLDY 88 77 71 CALM 29.95R HX 100 CLAXTON FAIR 86 73 66 CALM 29.94R HX 93 ...CSRA...CENTRAL AND FAR SOUTHEAST GEORGIA... CITY SKY/WX TMP DP RH WIND PRES REMARKS THOMSON MOCLDY 81 80 99 CALM 29.99S HX 91 AUGUSTA-BUSH CLOUDY 88 73 61 E6 29.93R HX 95 6HR MIN TEMP: 88; 6HR MAX TEMP: 96; AUGUSTA-DANIEL CLOUDY 91 69 48 E9 29.95R HX 96 SWAINSBORO FAIR 88 77 70 CALM 29.95S HX 100 VIDALIA CLOUDY 79 73 83 CALM 29.95F EASTMAN FAIR 87 80 80 CALM 29.97R HX 101 HAZLEHURST FAIR 90 77 67 CALM 29.93R HX 103 ALMA PTCLDY 89 77 67 CALM 29.93R HX 101 6HR MIN TEMP: 89; 6HR MAX TEMP: 95; WAYCROSS PTCLDY 89 79 71 E5 29.94R HX 104 JESUP FAIR 86 73 66 CALM 29.95R HX 93 BAXLEY FAIR 90 75 62 SE8 29.94R HX 100 BRUNSWICK PTCLDY 82 77 83 E7 29.95S HX 91 SAINT SIMONS PTCLDY 83 76 79 NE13 29.94R HX 91 6HR MIN TEMP: 83; 6HR MAX TEMP: 88; $$ SCZ027-028-034-036>038-045-046-048>050-GAZ119-141-290100- ...LAKE AND SUPPLEMENTAL COASTAL OBSERVATIONS... STATION/POSITION TIME TEMP WIND PRES WAVE SWELL AIR SEA DIR/SP/G HT/PER HT/PER/DIR (UTC) (F) (DEG/KT/KT) (MB) (FT/S) (FT/S/D) UPR LAKE MARION NOT AVBL WINYAH BAY 2300 83 80/ 9 1014.0 LAKE MURRAY 0000 77 CALM / 1 1013.9S ACE BASIN NERRS 2300 86 110/ 3 1014.0S FORT PULASKI 0000 83 86 90/ 11/ 13 1014.9R SAPELO ISLAND 0000 83 70/ 6 1014.0R $$ ANZ835-935-AMZ111-154-330-350-352-354-370-450-454-472-290100- ...C-MAN AND BUOY OBSERVATIONS... STATION/POSITION TIME TEMP WIND PRES WAVE SWELL AIR SEA DIR/SP/G HT/PER HT/PER/DIR (UTC) (F) (DEG/KT/KT) (MB) (FT/S) (FT/S/D) BUOY 41004 2350 83 85 60/ 10/ 12 1013.4R 3/ 5 3/ 5 BUOY 41008 2350 82 82 50/ 12/ 14 1013.9R 2/ 4 2/130/ 6 FOLLY BEACH CMAN 0000 82 70/ 11/ 13 1014.6R CAPERS NEARSHORE NOT AVBL FRIPP NEARSHORE 2300 83 80/ 12/ 14 1013.3F STATION/POSITION TIME TEMP WIND PRES WAVE SWELL AIR SEA DIR/SP/G HT/PER HT/PER/DIR (UTC) (F) (DEG/KT/KT) (MB) (FT/S) (FT/S/D) 5E ST. MARYS GA 2321 81 N/A 3/11 FRYING PAN BUOY 2350 83 84 70/ 12/ 14 1014.3R 4/ 7 3/160/ 7 BUOY 41025 NOT AVBL CAPE LOOKOUT NC 0000 81 70/ 11/ 12 1014.4S BUOY 41002 2350 82 82 230/ 17/ 19 1013.4S 8/ 7 3/140/11 BUOY 41010 2320 84 84 190/ 16/ 19 1013.8F ST AUGUSTINE FL 0000 81 82 360/ 9/ 11 1014.0R $$

USA.gov is the U.S. government's official web portal to all federal, state and local government web resources and services.